This is the latest recevied weather packets stored in our database for station/object DK8HC-WX. If no packets are shown the sender has not sent any weather packets the latest 10 day(s).
| Time | Temp. | Humidity | Pressure | Rain* | Wind** | Luminosity | Snow |
|---|---|---|---|---|---|---|---|
| 1777618294 | 17.22° C | 77% | 1032.2 hPa | - | - | - | - |
| 1777617694 | 17.22° C | 76% | 1032.1 hPa | - | - | - | - |
| 1777616494 | 15.56° C | 86% | 1031.4 hPa | - | - | - | - |
| 1777615894 | 15.56° C | 84% | 1031.5 hPa | - | - | - | - |
| 1777615294 | 16.11° C | 95% | 1031.2 hPa | - | - | - | - |
| 1777614694 | 13.89° C | 100% | 1030.9 hPa | - | - | - | - |
| 1777614094 | 13.33° C | 100% | 1031 hPa | - | - | - | - |
| 1777613493 | 11.67° C | 100% | 1030.9 hPa | - | - | - | - |
| 1777612893 | 11.67° C | 100% | 1030.6 hPa | - | - | - | - |
| 1777612293 | 10° C | 100% | 1030.4 hPa | - | - | - | - |
| 1777611693 | 9.44° C | 100% | 1030.4 hPa | - | - | - | - |
| 1777611093 | 8.33° C | 100% | 1030.1 hPa | - | - | - | - |
| 1777610493 | 7.22° C | 100% | 1030.1 hPa | - | - | - | - |
| 1777609893 | 6.11° C | 100% | 1030 hPa | - | - | - | - |
| 1777608693 | 5° C | 100% | 1029.8 hPa | - | - | - | - |
| 1777608093 | 5.56° C | 100% | 1029.7 hPa | - | - | - | - |
| 1777607493 | 5.56° C | 100% | 1029.6 hPa | - | - | - | - |
| 1777606893 | 6.11° C | 100% | 1029.6 hPa | - | - | - | - |
| 1777606293 | 6.11° C | 100% | 1029.6 hPa | - | - | - | - |
| 1777605693 | 6.11° C | 100% | 1029.5 hPa | - | - | - | - |
| 1777605093 | 6.67° C | 100% | 1029.7 hPa | - | - | - | - |
| 1777604493 | 6.67° C | 100% | 1029.7 hPa | - | - | - | - |
| 1777603893 | 6.67° C | 100% | 1029.8 hPa | - | - | - | - |
| 1777603293 | 6.67° C | 100% | 1029.9 hPa | - | - | - | - |
| 1777602693 | 6.67° C | 100% | 1029.8 hPa | - | - | - | - |
* Rain since midnight (hover to see other rain measurements)
** Current wind speed in m/s (hover to see current wind gust speed)